Wind_Speed
30 33 34 36 37 35 32 35 36 34 33 33 33 34 35 36 36 36 35 34 34 35 36 34 35 36 36 36 25 32 27 28 29 27 34 44 48 49 52 48 44 51 39 44 46 44 43
33 35 37 37 36 34 34 36 35 35 35 36 37 40 40 40 40 38 37 38 37 36 36 35 36 39 41 44 33 28 24 24 24 28 32 33 45 47 37 41 47 39 46 43 42 44 45
35 36 38 37 35 34 35 35 36 37 39 40 40 40 41 42 43 44 42 42 42 40 38 38 35 37 44 39 36 37 35 33 29 29 30 33 36 42 43 37 44 49 38 36 43 41 36
37 39 38 36 35 35 34 36 38 41 42 41 41 43 43 47 49 51 49 46 48 48 46 41 38 36 45 36 33 38 34 34 34 31 30 27 30 39 40 28 24 33 37 37 25 33 38
39 39 36 36 34 34 36 38 39 40 40 42 45 48 49 49 52 54 56 53 52 51 50 45 40 35 35 18 14 24 33 32 30 27 30 32 32 35 37 30 26 28 31 33 33 26 31
39 37 37 36 35 36 37 38 38 40 43 47 50 53 54 53 53 52 54 53 51 47 42 22 13 18 20 15 15 17 15 17 24 24 27 29 33 41 40 39 44 31 32 32 32 33 31
38 38 36 35 36 38 39 40 41 44 47 50 51 53 53 52 52 51 52 52 48 38 26 23 21 30 34 35 30 21 22 17 18 23 30 32 42 49 50 49 41 24 28 29 26 26 23
37 35 35 37 39 40 41 43 46 48 49 49 49 50 49 48 47 47 45 43 38 34 36 10 6 3 8 10 12 10 35 27 27 30 29 35 42 41 36 41 38 35 25 28 19 24 24
38 35 36 38 40 42 43 46 48 50 51 51 51 49 47 46 42 39 38 35 30 28 21 16 17 19 22 17 10 12 12 28 35 29 32 37 34 34 28 33 42 41 38 28 22 24 22
33 34 36 39 40 43 46 47 49 50 51 51 49 47 46 46 45 41 33 29 23 21 4 17 28 19 29 29 13 10 8 18 21 27 28 31 36 35 29 32 30 28 28 24 27 24 12
33 35 38 40 42 44 46 49 50 50 50 49 48 46 45 45 42 39 35 26 16 8 3 16 27 23 20 21 23 25 17 1 17 21 25 18 19 37 26 29 27 28 21 22 19 22 13
36 37 40 41 42 45 47 48 49 49 48 47 46 46 43 40 36 38 32 19 12 6 7 17 19 23 23 18 20 22 19 16 4 9 18 21 19 19 20 25 23 16 17 19 21 21 12
37 39 41 42 44 46 46 48 50 48 46 45 44 42 39 36 34 33 28 18 5 11 20 21 26 25 18 26 20 25 20 23 22 11 1 11 21 12 12 19 23 25 23 6 7 7 5
37 40 41 42 45 47 48 48 47 46 45 43 42 38 33 32 23 25 24 20 16 12 18 23 23 19 16 26 17 20 18 18 25 19 7 11 2 9 16 11 11 28 26 5 5 8 9
37 39 41 42 45 47 48 48 45 44 43 41 38 34 32 32 25 20 22 23 9 13 18 19 19 17 19 23 15 16 11 20 22 22 10 11 6 7 2 9 14 22 12 10 6 4 10
37 40 41 43 45 46 47 48 45 43 41 40 38 35 33 29 24 22 23 15 12 15 22 14 15 13 19 23 19 19 15 15 16 15 12 8 5 11 7 5 4 9 18 5 5 6 4
38 40 41 42 44 46 47 46 45 43 41 39 38 38 29 29 25 27 26 18 18 20 20 16 14 16 18 21 17 13 11 7 16 18 13 9 4 7 6 9 5 2 5 5 4 1 2
37 39 40 42 44 46 46 45 43 44 42 38 38 36 32 35 34 31 25 25 20 21 16 16 14 17 23 18 11 9 10 11 15 16 16 16 8 5 7 7 9 8 9 3 3 4 3
37 38 40 42 44 45 45 43 42 42 42 41 38 34 32 37 34 32 26 25 23 21 18 18 17 21 22 21 9 10 16 8 11 14 14 13 9 3 3 5 13 12 15 7 3 6 3
36 38 39 41 43 43 43 41 40 41 40 39 39 34 33 36 28 28 29 30 26 18 20 20 19 21 20 18 16 13 16 12 10 9 11 7 9 8 4 2 7 9 12 13 2 1 6
36 37 39 40 42 43 43 40 39 40 38 38 37 32 30 30 28 27 27 27 28 25 19 23 18 20 21 18 16 18 14 12 7 13 12 7 4 5 4 5 6 7 9 8 10 4 0
35 36 38 39 41 42 41 38 39 39 38 37 37 34 28 24 24 26 28 27 26 22 20 19 21 20 19 21 15 18 14 13 12 13 13 9 4 5 4 4 4 5 5 4 4 8 10
34 35 36 38 39 40 39 37 38 38 36 36 34 32 28 23 23 27 25 24 26 24 15 17 20 17 18 19 9 11 11 14 16 13 12 8 7 6 3 7 3 1 8 2 1 5 8
33 34 35 37 39 39 37 36 37 36 34 33 32 30 28 21 22 24 21 21 22 21 19 16 15 15 16 14 10 7 8 11 15 19 12 7 6 5 5 6 2 3 6 1 2 2 6
32 33 34 36 37 37 35 35 36 35 33 32 31 29 26 22 22 22 22 21 20 18 16 19 12 14 15 11 11 5 9 5 14 18 16 6 5 3 4 4 3 6 11 2 6 5 6
31 32 33 34 35 35 34 35 35 34 31 30 29 26 26 21 20 22 22 26 31 31 24 15 12 9 10 12 8 9 8 8 8 8 16 12 10 5 5 3 4 15 3 3 9 4 8
30 31 32 32 34 34 33 33 34 33 31 28 27 25 24 20 20 20 23 26 28 31 29 21 12 9 8 9 12 6 6 9 6 11 15 12 9 9 8 4 5 14 5 7 3 2 8
29 30 31 31 32 33 32 32 33 32 30 27 26 25 25 22 15 23 21 23 26 30 30 22 7 14 9 9 7 6 6 8 7 8 11 9 7 7 6 4 4 15 8 8 9 8 9
28 29 30 31 31 32 31 31 31 31 29 26 24 25 26 21 11 21 20 22 24 27 25 20 15 11 9 7 7 5 7 7 8 4 13 5 8 3 4 2 5 9 12 11 10 10 11
Wind_Direction
1 357 353 350 346 345 347 345 343 344 343 340 336 332 331 327 325 321 318 315 310 306 303 301 297 293 289 284 290 284 276 269 257 243 238 231 225 222 221 228 233 237 228 239 235 237 242
358 355 351 348 347 346 344 344 346 344 341 338 337 334 329 326 322 319 318 315 310 305 300 295 289 284 282 279 283 276 273 268 258 248 235 228 231 232 233 223 224 235 236 237 239 241 240
355 352 350 348 348 347 346 348 345 343 340 339 335 329 329 329 325 323 323 320 314 310 305 300 291 282 277 280 275 268 266 261 251 246 242 236 237 229 223 226 229 225 238 238 233 235 236
351 350 348 349 349 349 351 348 347 345 340 335 331 331 334 332 328 324 322 319 313 309 306 301 294 285 278 289 269 263 256 253 245 236 233 222 227 228 223 223 227 233 229 234 234 222 230
348 347 351 350 351 353 353 350 346 341 337 336 338 337 337 334 328 325 321 317 311 307 303 302 296 292 286 290 266 256 251 244 242 237 225 218 210 220 220 218 223 215 224 229 229 233 228
349 351 351 353 355 355 352 348 346 343 343 343 343 339 338 335 329 324 319 317 314 310 307 310 289 277 283 280 276 274 258 240 227 225 214 214 212 215 217 207 216 213 223 227 225 224 215
351 351 355 355 355 355 352 350 347 348 348 347 344 340 340 335 332 329 325 322 318 318 312 312 283 267 269 271 268 260 251 233 226 221 210 204 207 212 215 219 224 231 228 230 227 217 215
353 356 357 357 356 354 352 351 353 353 349 347 346 343 343 340 338 335 332 328 332 327 336 15 358 322 306 318 310 256 238 234 230 228 224 224 216 225 221 226 217 217 224 229 224 212 220
356 357 358 357 355 354 354 355 355 353 350 350 350 348 347 345 345 344 339 333 330 338 343 19 19 358 9 333 327 316 251 233 229 230 225 228 230 236 220 215 208 214 217 219 215 207 205
357 358 358 357 356 356 356 357 356 355 354 352 353 352 352 354 351 353 352 338 334 339 23 1 2 347 356 358 357 319 267 211 212 226 227 237 233 233 243 237 236 234 216 207 199 177 193
357 358 358 358 357 357 358 358 357 357 356 355 356 358 360 359 355 359 1 354 350 18 38 358 358 358 9 8 351 352 327 251 209 206 206 221 222 230 213 228 231 238 234 229 213 197 199
359 359 358 357 358 360 360 357 359 359 357 357 0 2 359 358 3 3 5 6 30 34 1 349 346 1 6 8 6 13 15 8 317 219 219 207 211 215 228 229 218 222 227 215 220 216 214
359 358 357 357 359 1 359 0 359 359 0 1 4 3 358 355 6 6 2 357 26 35 345 338 340 359 6 2 6 11 19 12 22 4 309 242 225 212 178 202 193 197 171 164 180 196 216
359 357 358 357 359 359 359 1 0 358 1 4 5 5 2 356 5 1 3 40 55 357 352 355 348 8 9 7 5 10 32 25 28 19 357 10 113 208 194 194 193 193 188 208 170 178 163
357 357 358 358 0 358 358 1 360 0 2 5 6 4 5 12 9 359 11 50 36 3 349 342 358 6 360 357 5 11 24 31 23 24 17 360 3 5 10 200 175 192 202 182 112 107 166
355 357 357 359 359 358 359 357 359 3 3 4 5 8 14 14 12 10 36 54 27 6 3 2 1 359 353 350 360 3 13 18 27 16 28 353 311 356 96 112 158 166 203 202 203 169 156
355 355 357 358 358 359 358 356 358 2 5 4 3 7 15 13 3 17 39 24 10 16 7 9 355 351 342 338 339 347 1 4 12 22 15 5 10 1 72 31 356 113 168 212 161 128 184
355 354 356 357 358 358 357 356 359 0 3 4 7 10 8 8 14 33 20 9 356 358 13 13 11 5 360 347 335 343 358 354 2 11 14 11 14 15 59 84 62 79 50 94 272 138 95
354 354 355 357 357 357 357 356 360 1 2 3 8 11 6 6 25 20 21 17 23 10 21 18 14 7 5 16 342 3 348 340 2 8 21 24 8 331 342 25 32 32 27 29 107 133 146
352 354 355 356 357 357 356 358 359 1 2 5 7 12 11 15 24 19 15 13 16 30 24 17 6 2 10 15 23 20 20 16 12 28 15 27 51 54 54 24 349 349 358 18 66 203 151
352 352 355 356 356 357 356 357 360 1 3 5 11 15 14 12 19 17 17 10 15 12 18 8 16 18 11 2 6 358 5 6 7 0 7 31 48 34 22 356 359 359 358 5 35 83 140
351 352 354 355 356 357 356 357 360 2 3 5 10 11 15 19 16 13 16 16 9 17 10 11 10 11 12 9 357 354 356 9 8 9 17 16 14 36 59 40 341 341 354 345 17 63 83
350 352 354 355 355 357 355 358 0 1 3 6 8 9 17 21 17 18 14 12 9 358 4 355 355 4 12 4 16 27 43 39 19 12 8 24 25 30 40 357 342 43 355 1 339 46 65
348 351 353 355 356 357 354 358 2 1 3 5 7 9 16 24 23 18 18 12 6 6 6 359 357 7 9 5 15 23 33 34 29 25 19 24 38 32 338 358 89 13 12 141 175 120 75
347 349 352 354 356 355 354 359 2 1 2 4 6 10 13 19 19 19 18 18 18 15 8 7 14 6 7 21 33 13 19 13 17 25 23 41 42 6 2 8 71 38 357 14 171 192 158
345 347 351 355 355 354 354 359 2 1 1 3 4 7 11 12 14 14 10 8 9 11 15 21 10 1 17 34 48 39 28 349 356 16 27 37 35 25 349 5 47 358 311 140 138 69 188
343 345 350 354 354 352 353 357 359 359 359 0 2 4 7 6 10 5 6 6 5 5 6 8 16 22 24 37 44 36 25 14 4 6 0 15 20 21 24 42 27 16 124 73 44 10 168
341 343 349 353 352 351 352 356 357 357 358 357 358 1 2 0 3 3 359 0 360 2 3 4 7 9 28 34 31 18 5 4 7 10 4 8 3 7 5 23 17 34 100 90 78 89 132
339 341 347 351 350 350 351 354 354 355 355 354 354 356 1 3 4 1 359 358 358 360 2 7 7 357 3 10 7 2 350 1 359 359 7 4 3 3 38 89 27 44 79 89 86 82 118
Height
3149 3145 3140 3135 3129 3123 3117 3112 3107 3100 3095 3090 3086 3080 3074 3068 3064 3059 3054 3050 3045 3039 3036 3032 3028 3024 3020 3018 3022 3015 3017 3016 3017 3017 3017 3018 3019 3023 3020 3023 3031 3026 3034 3036 3044 3046 3050
3148 3143 3138 3132 3126 3120 3114 3108 3102 3096 3091 3086 3080 3074 3067 3062 3057 3053 3048 3042 3036 3032 3026 3023 3020 3015 3009 3005 3010 3008 3006 3006 3007 3008 3009 3010 3010 3017 3018 3020 3020 3022 3027 3031 3036 3039 3043
3147 3141 3135 3130 3124 3118 3112 3105 3099 3093 3086 3080 3075 3069 3063 3057 3049 3043 3039 3033 3027 3022 3017 3011 3008 3003 2995 3001 2998 2996 2996 2995 2997 2998 2999 3003 3005 3009 3012 3015 3015 3021 3020 3024 3025 3032 3033
3144 3139 3133 3127 3122 3116 3109 3103 3095 3088 3082 3075 3068 3063 3059 3049 3040 3032 3028 3024 3015 3009 3004 2999 2994 2990 2980 2986 2985 2983 2983 2984 2985 2988 2990 2994 2997 3001 3002 3006 3008 3011 3016 3014 3018 3024 3028
3142 3136 3130 3125 3119 3113 3106 3099 3092 3085 3078 3070 3063 3054 3048 3042 3031 3022 3013 3009 3003 2996 2990 2985 2981 2976 2972 2972 2972 2970 2970 2973 2976 2980 2982 2985 2989 2989 2995 2997 3003 3000 2998 3004 3015 3015 3021
3140 3134 3128 3122 3116 3110 3104 3097 3090 3082 3073 3063 3055 3046 3039 3032 3023 3014 3004 2996 2989 2982 2977 2975 2973 2972 2969 2967 2966 2966 2966 2966 2969 2972 2976 2978 2979 2979 2981 2984 2973 2989 2994 2999 3002 3007 3010
3138 3132 3125 3120 3113 3107 3100 3093 3086 3077 3067 3059 3051 3041 3033 3024 3013 3003 2993 2983 2979 2975 2975 2968 2967 2962 2959 2958 2958 2960 2960 2961 2963 2967 2966 2968 2967 2960 2965 2970 2980 2988 2990 2992 2997 3000 3002
3135 3129 3123 3117 3110 3104 3096 3088 3079 3071 3064 3057 3048 3038 3029 3018 3009 2998 2987 2977 2969 2966 2960 2960 2958 2956 2954 2951 2949 2950 2952 2954 2955 2958 2963 2962 2952 2960 2969 2970 2975 2980 2983 2986 2991 2992 2996
3132 3127 3121 3114 3107 3100 3092 3083 3075 3067 3058 3049 3041 3032 3023 3013 3003 2995 2983 2975 2968 2964 2963 2960 2957 2955 2953 2952 2947 2945 2943 2941 2946 2951 2954 2953 2956 2958 2957 2960 2964 2967 2972 2980 2984 2986 2990
3131 3125 3118 3111 3104 3097 3088 3080 3072 3064 3054 3044 3036 3028 3017 3006 2998 2987 2981 2972 2967 2963 2963 2963 2960 2957 2954 2950 2947 2942 2937 2938 2941 2943 2949 2949 2952 2951 2951 2953 2958 2963 2967 2972 2975 2978 2983
3129 3122 3115 3108 3101 3094 3086 3078 3069 3059 3050 3041 3033 3022 3011 3000 2994 2986 2979 2971 2966 2963 2965 2968 2962 2958 2955 2951 2949 2944 2936 2934 2936 2937 2941 2942 2942 2945 2946 2949 2956 2959 2965 2968 2970 2974 2978
3127 3120 3113 3106 3098 3091 3084 3074 3065 3057 3048 3038 3028 3018 3009 3005 2995 2986 2980 2973 2969 2969 2972 2968 2965 2959 2956 2953 2948 2943 2939 2936 2934 2933 2933 2935 2937 2940 2942 2947 2953 2956 2960 2964 2968 2970 2970
3125 3118 3111 3104 3096 3088 3081 3072 3062 3054 3046 3037 3027 3018 3008 3001 2993 2988 2982 2977 2976 2978 2980 2973 2963 2960 2957 2952 2948 2944 2941 2935 2935 2932 2931 2932 2934 2935 2937 2940 2945 2949 2955 2960 2963 2963 2959
3123 3117 3110 3103 3094 3085 3079 3071 3061 3053 3045 3035 3027 3019 3012 3002 2997 2992 2986 2980 2978 2985 2981 2974 2968 2962 2959 2954 2951 2948 2945 2942 2939 2937 2934 2933 2933 2933 2935 2937 2938 2942 2947 2946 2943 2948 2953
3122 3115 3108 3100 3092 3084 3076 3069 3061 3053 3044 3035 3027 3020 3013 3003 2997 2992 2988 2982 2989 2986 2982 2976 2970 2964 2962 2959 2955 2951 2948 2947 2944 2941 2940 2937 2935 2934 2933 2934 2938 2939 2941 2945 2946 2948 2949
3120 3113 3106 3098 3090 3083 3074 3066 3060 3053 3043 3034 3027 3020 3011 3004 2999 2994 2988 2989 2991 2987 2982 2977 2974 2970 2965 2961 2957 2954 2952 2951 2949 2945 2942 2941 2938 2935 2934 2935 2937 2937 2940 2943 2943 2942 2942
3118 3112 3104 3097 3090 3081 3073 3065 3057 3050 3042 3034 3027 3018 3013 3007 3002 2995 2991 2993 2990 2987 2983 2979 2975 2972 2969 2963 2959 2957 2955 2953 2949 2946 2944 2942 2941 2938 2936 2938 2937 2938 2938 2940 2941 2942 2938
3117 3110 3103 3095 3088 3080 3072 3065 3057 3047 3040 3034 3025 3018 3013 3007 3001 2996 2996 2993 2990 2986 2983 2979 2977 2973 2968 2962 2959 2957 2956 2954 2952 2949 2946 2943 2940 2940 2941 2941 2940 2939 2939 2940 2940 2945 2945
3116 3108 3101 3093 3086 3079 3072 3064 3056 3047 3039 3031 3024 3019 3014 3007 3000 2999 2998 2996 2991 2986 2982 2979 2977 2974 2970 2965 2962 2959 2957 2955 2954 2951 2950 2949 2947 2945 2943 2945 2943 2942 2942 2942 2941 2943 2945
3114 3107 3100 3093 3086 3078 3071 3063 3054 3047 3040 3033 3025 3020 3015 3008 3006 3003 2999 2996 2991 2989 2985 2982 2979 2974 2970 2967 2964 2962 2959 2957 2955 2954 2952 2951 2950 2950 2952 2952 2950 2948 2945 2944 2943 2945 2946
3113 3106 3099 3092 3084 3076 3070 3062 3055 3048 3041 3034 3027 3022 3016 3012 3008 3006 3003 2999 2993 2988 2987 2983 2980 2976 2973 2969 2965 2963 2961 2958 2957 2955 2953 2952 2952 2951 2951 2950 2950 2950 2949 2948 2947 2947 2949
3111 3105 3098 3091 3083 3076 3070 3062 3054 3047 3041 3035 3029 3024 3018 3015 3011 3008 3003 3000 2996 2992 2989 2985 2982 2979 2975 2972 2969 2964 2962 2960 2959 2956 2954 2952 2952 2952 2952 2952 2952 2952 2950 2949 2951 2950 2950
3110 3104 3097 3090 3083 3076 3069 3061 3054 3047 3041 3035 3031 3025 3020 3017 3013 3009 3005 3002 2997 2992 2990 2986 2983 2979 2976 2973 2970 2968 2965 2963 2961 2958 2956 2954 2954 2953 2954 2953 2952 2952 2951 2951 2952 2952 2951
3108 3103 3096 3089 3082 3076 3069 3062 3055 3048 3043 3038 3032 3027 3021 3018 3014 3011 3008 3004 3000 2995 2990 2987 2983 2980 2978 2973 2971 2969 2967 2966 2963 2961 2958 2957 2956 2955 2954 2952 2952 2955 2953 2952 2952 2952 2954
3107 3101 3094 3088 3082 3075 3069 3062 3055 3049 3043 3038 3033 3028 3023 3019 3015 3013 3009 3006 3003 2997 2992 2987 2983 2981 2977 2975 2973 2971 2969 2968 2966 2963 2960 2958 2958 2957 2956 2955 2956 2956 2954 2953 2953 2956 2957
3105 3099 3093 3087 3081 3075 3069 3062 3056 3050 3044 3039 3034 3029 3025 3021 3018 3013 3010 3005 2999 2994 2991 2988 2984 2981 2979 2976 2974 2974 2973 2971 2969 2966 2964 2961 2960 2960 2957 2956 2956 2958 2955 2954 2955 2958 2958
3103 3098 3092 3085 3079 3074 3068 3062 3056 3050 3045 3041 3035 3030 3026 3022 3018 3014 3010 3006 3001 2996 2991 2986 2984 2982 2980 2978 2976 2976 2976 2974 2973 2970 2966 2964 2962 2962 2961 2960 2960 2958 2956 2956 2959 2965 2959
3101 3096 3090 3084 3078 3073 3068 3062 3056 3050 3045 3041 3036 3031 3026 3022 3019 3015 3011 3008 3003 2998 2992 2989 2986 2983 2981 2980 2979 2978 2977 2976 2975 2973 2970 2969 2967 2965 2964 2963 2964 2958 2959 2961 2963 2961 2961
3098 3094 3088 3082 3078 3073 3068 3062 3056 3050 3044 3040 3035 3030 3026 3022 3019 3016 3012 3008 3005 3000 2995 2990 2987 2984 2983 2982 2982 2980 2978 2977 2976 2974 2972 2972 2971 2969 2968 2968 2966 2964 2964 2964 2964 2965 2964